Вернуться в каталог

ONEWEB-0197

АктивенСвязьPO
NORAD 48236·PAYLOAD·🇬🇧 United Kingdom

Запущен Apr 25, 2021 с Vostochny Cosmodrome

Loading…

Ближайшие Пролёты (ближайшие 24 часа)

TLE

СвежийSource: CelesTrak SupGP

Эпоха: Sep 14, 2026, 07:24 UTC

1 48236C 21031AC  26257.30852269 -.00000159  00000+0 -42980-3 0  2576
2 48236  87.8886 271.9112 0002039  96.7933  16.4184 13.14499932    14

Отслеживайте ONEWEB-0197 в реальном времени с AllMySat

Download on the App Store